← Previous April 15, 2024 2:00 PM

ASUS41 KBGM 151910
RWRBGM

REGIONAL WEATHER ROUNDUP
NATIONAL WEATHER SERVICE BINGHAMTON NY
300 PM EDT MON APR 15 2024

Note: "fair" indicates few or no clouds below 12,000 feet with no
significant weather and/or obstructions to visibility.

* = Station(s) that does not report precipitation, such as rain, 
snow, etc, also no thunder or fog.

NYZ009-015>018-022>025-036-037-044>046-055>057-062-152000
...Central New York...
  
CITY           SKY/WX    TMP DP  RH WIND       PRES   REMARKS
Binghamton     SUNNY     61  41  47 NW10      29.88S                  
Cortland       PTSUNNY   55  37  50 NW10G18   29.91F                  
Dansville      MOSUNNY   64  36  35 NW15G29   29.91S                  
Elmira         PTSUNNY   67  39  35 NW12      29.87S                  
Endicott       PTCLDY    64  39  39 W7        29.86                   
Ithaca         MOSUNNY   58  41  53 N8        29.91F                  
Hamilton       PTSUNNY   54  36  50 NW9G16    29.91S                  
Monticello     NOT AVBL                                               
Norwich        CLOUDY    57  37  47 NW9G17    29.92F                  
Oneonta        PTCLDY    55  37  50 NW12G17   29.89S                  
Penn Yan       MOSUNNY   59  37  44 W9G20     29.91S                  
Rome           PTSUNNY   54  39  57 NW9       29.92F                  
Seneca Falls   MOCLDY    57  39  51 NW16      29.93S                  
Sidney         PTCLDY    57  39  51 NW10      29.89S                  
Skaneateles    PTSUNNY   55  41  58 VRB6G15   29.92S                  
Syracuse       MOSUNNY   60  38  43 NW12G20   29.92F                  
$$
 
PAZ038>040-043-044-047-048-072-152000
...Northeast Pennsylvania...
  
CITY           SKY/WX    TMP DP  RH WIND       PRES   REMARKS
Hazleton       MOSUNNY   70  46  43 NW7       29.90S                  
Scranton       PTSUNNY   72  39  30 N7        29.83F                  
$$
&&
KEY
WCI = Wind Chill Index
VSB = Visibility
HX  = Heat Index
$$